Time,TemperatureF,DewpointF,PressureIn,WindDirection,WindDirectionDegrees,WindSpeedMPH,WindSpeedGustMPH,Humidity,HourlyPrecipIn,Conditions,Clouds,dailyrainin,SoftwareType,DateUTC
2013-06-03 00:03:00,60.0,53.0,-100.00,NW,320,7.0,11.0,79,0.00,,,-99.99,,2013-06-03 04:03:00,
2013-06-03 00:13:00,59.0,53.0,-100.00,WNW,285,7.0,11.0,79,0.00,,,-99.99,,2013-06-03 04:13:00,
2013-06-03 00:23:00,59.0,53.0,-100.00,WNW,295,7.0,14.0,80,0.00,,,-99.99,,2013-06-03 04:23:00,
2013-06-03 00:33:00,58.0,53.0,-100.00,WNW,295,4.0,12.0,80,0.00,,,-99.99,,2013-06-03 04:33:00,
2013-06-03 00:42:00,58.0,52.0,-100.00,NW,310,8.0,14.0,79,0.00,,,-99.99,,2013-06-03 04:42:00,
2013-06-03 00:53:00,57.0,51.0,-100.00,WNW,295,8.0,16.0,80,0.00,,,-99.99,,2013-06-03 04:53:00,
2013-06-03 01:02:00,57.0,51.0,-100.00,NW,305,10.0,16.0,80,0.00,,,-99.99,,2013-06-03 05:02:00,
2013-06-03 01:12:00,56.0,51.0,-100.00,WNW,285,9.0,15.0,81,0.00,,,-99.99,,2013-06-03 05:12:00,
2013-06-03 01:22:00,56.0,51.0,-100.00,WNW,285,9.0,15.0,81,0.00,,,-99.99,,2013-06-03 05:22:00,
2013-06-03 01:32:00,55.0,49.0,-100.00,NW,310,9.0,14.0,81,0.00,,,-99.99,,2013-06-03 05:32:00,
2013-06-03 01:42:00,55.0,50.0,-100.00,WNW,300,6.0,11.0,83,0.00,,,-99.99,,2013-06-03 05:42:00,
2013-06-03 01:52:00,55.0,50.0,-100.00,WNW,290,6.0,10.0,84,0.00,,,-99.99,,2013-06-03 05:52:00,
2013-06-03 02:02:00,54.0,50.0,-100.00,WNW,285,6.0,11.0,85,0.00,,,-99.99,,2013-06-03 06:02:00,
2013-06-03 02:12:00,54.0,50.0,-100.00,WNW,295,7.0,12.0,84,0.00,,,-99.99,,2013-06-03 06:12:00,
2013-06-03 02:22:00,54.0,49.0,-100.00,WNW,300,6.0,9.0,85,0.00,,,-99.99,,2013-06-03 06:22:00,
2013-06-03 02:32:00,54.0,49.0,-100.00,WNW,295,6.0,9.0,84,0.00,,,-99.99,,2013-06-03 06:32:00,
2013-06-03 02:42:00,54.0,49.0,-100.00,NW,305,7.0,10.0,84,0.00,,,-99.99,,2013-06-03 06:42:00,
2013-06-03 02:52:00,54.0,49.0,-100.00,NW,305,4.0,9.0,85,0.00,,,-99.99,,2013-06-03 06:52:00,
2013-06-03 03:02:00,54.0,49.0,-100.00,NW,305,4.0,9.0,85,0.00,,,-99.99,,2013-06-03 07:02:00,
2013-06-03 03:12:00,54.0,49.0,-100.00,WNW,290,6.0,9.0,85,0.00,,,-99.99,,2013-06-03 07:12:00,
2013-06-03 03:22:00,54.0,49.0,-100.00,WNW,300,6.0,13.0,84,0.00,,,-99.99,,2013-06-03 07:22:00,
2013-06-03 03:32:00,53.0,49.0,-100.00,WNW,300,6.0,11.0,84,0.00,,,-99.99,,2013-06-03 07:32:00,
2013-06-03 03:42:00,53.0,49.0,-100.00,WNW,300,6.0,11.0,84,0.00,,,-99.99,,2013-06-03 07:42:00,
2013-06-03 03:52:00,53.0,49.0,-100.00,WNW,290,4.0,9.0,84,0.00,,,-99.99,,2013-06-03 07:52:00,
2013-06-03 04:02:00,53.0,48.0,-100.00,WNW,290,6.0,11.0,84,0.00,,,-99.99,,2013-06-03 08:02:00,
2013-06-03 04:12:00,53.0,48.0,-100.00,West,280,6.0,9.0,83,0.00,,,-99.99,,2013-06-03 08:12:00,
2013-06-03 04:22:00,52.0,48.0,-100.00,NW,305,6.0,11.0,84,0.00,,,-99.99,,2013-06-03 08:22:00,
2013-06-03 04:32:00,52.0,47.0,-100.00,NW,305,6.0,10.0,84,0.00,,,-99.99,,2013-06-03 08:32:00,
2013-06-03 04:42:00,52.0,48.0,-100.00,West,275,2.0,9.0,84,0.00,,,-99.99,,2013-06-03 08:42:00,
2013-06-03 04:52:00,52.0,47.0,-100.00,WNW,285,4.0,7.0,85,0.00,,,-99.99,,2013-06-03 08:52:00,
2013-06-03 05:02:00,52.0,48.0,-100.00,WNW,300,5.0,9.0,85,0.00,,,-99.99,,2013-06-03 09:02:00,
2013-06-03 05:12:00,52.0,47.0,-100.00,NW,305,4.0,7.0,85,0.00,,,-99.99,,2013-06-03 09:12:00,
2013-06-03 05:22:00,52.0,48.0,-100.00,NW,305,4.0,6.0,86,0.00,,,-99.99,,2013-06-03 09:22:00,
2013-06-03 05:33:00,52.0,48.0,-100.00,WNW,295,3.0,5.0,86,0.00,,,-99.99,,2013-06-03 09:33:00,
2013-06-03 05:42:00,52.0,48.0,-100.00,NW,305,3.0,7.0,86,0.00,,,-99.99,,2013-06-03 09:42:00,
2013-06-03 05:52:00,52.0,48.0,-100.00,NW,315,5.0,7.0,86,0.00,,,-99.99,,2013-06-03 09:52:00,
2013-06-03 06:03:00,52.0,48.0,-100.00,WNW,300,3.0,6.0,86,0.00,,,-99.99,,2013-06-03 10:03:00,
2013-06-03 06:12:00,52.0,48.0,-100.00,NW,305,3.0,5.0,86,0.00,,,-99.99,,2013-06-03 10:12:00,
2013-06-03 06:22:00,52.0,48.0,-100.00,NW,310,1.0,6.0,86,0.00,,,-99.99,,2013-06-03 10:22:00,
2013-06-03 06:33:00,52.0,48.0,-100.00,North,0,1.0,6.0,85,0.00,,,-99.99,,2013-06-03 10:33:00,
2013-06-03 06:42:00,52.0,48.0,-100.00,NW,325,1.0,3.0,85,0.00,,,-99.99,,2013-06-03 10:42:00,
2013-06-03 06:52:00,52.0,48.0,-100.00,North,355,2.0,5.0,84,0.00,,,-99.99,,2013-06-03 10:52:00,
2013-06-03 07:02:00,52.0,48.0,-100.00,NNW,335,1.0,6.0,84,0.00,,,-99.99,,2013-06-03 11:02:00,
2013-06-03 07:12:00,53.0,47.0,-100.00,NW,320,2.0,6.0,81,0.00,,,-99.99,,2013-06-03 11:12:00,
2013-06-03 07:22:00,53.0,47.0,-100.00,North,350,2.0,7.0,81,0.00,,,-99.99,,2013-06-03 11:22:00,
2013-06-03 07:32:00,53.0,47.0,-100.00,NW,325,2.0,9.0,80,0.00,,,-99.99,,2013-06-03 11:32:00,
2013-06-03 07:42:00,53.0,47.0,-100.00,North,5,3.0,7.0,79,0.00,,,-99.99,,2013-06-03 11:42:00,
2013-06-03 07:52:00,53.0,47.0,-100.00,NNW,345,1.0,9.0,81,0.00,,,-99.99,,2013-06-03 11:52:00,
2013-06-03 08:02:00,53.0,47.0,-100.00,North,0,2.0,6.0,80,0.00,,,-99.99,,2013-06-03 12:02:00,
2013-06-03 08:12:00,53.0,47.0,-100.00,NNW,335,2.0,7.0,80,0.00,,,-99.99,,2013-06-03 12:12:00,
2013-06-03 08:22:00,54.0,47.0,-100.00,NNW,330,3.0,6.0,77,0.00,,,-99.99,,2013-06-03 12:22:00,
2013-06-03 08:32:00,55.0,47.0,-100.00,NW,325,3.0,7.0,76,0.00,,,-99.99,,2013-06-03 12:32:00,
2013-06-03 08:42:00,54.0,47.0,-100.00,NW,315,4.0,11.0,79,0.00,,,-99.99,,2013-06-03 12:42:00,
2013-06-03 08:52:00,54.0,48.0,-100.00,NW,320,6.0,9.0,80,0.00,,,-99.99,,2013-06-03 12:52:00,
2013-06-03 09:02:00,54.0,48.0,-100.00,NW,305,5.0,9.0,79,0.00,,,-99.99,,2013-06-03 13:02:00,
2013-06-03 09:12:00,53.0,47.0,-100.00,NW,310,4.0,12.0,80,0.00,,,-99.99,,2013-06-03 13:12:00,
2013-06-03 09:22:00,53.0,47.0,-100.00,NW,305,6.0,9.0,81,0.00,,,-99.99,,2013-06-03 13:22:00,
2013-06-03 09:32:00,53.0,47.0,-100.00,NW,320,3.0,9.0,81,0.00,,,-99.99,,2013-06-03 13:32:00,
2013-06-03 09:42:00,53.0,47.0,-100.00,NW,325,3.0,10.0,82,0.00,,,-99.99,,2013-06-03 13:42:00,
2013-06-03 09:52:00,52.0,46.0,-100.00,NW,315,7.0,11.0,80,0.00,,,-99.99,,2013-06-03 13:52:00,
2013-06-03 10:02:00,53.0,46.0,-100.00,NW,315,7.0,11.0,78,0.00,,,-99.99,,2013-06-03 14:02:00,
2013-06-03 10:12:00,53.0,47.0,-100.00,NW,320,4.0,12.0,79,0.00,,,-99.99,,2013-06-03 14:12:00,
2013-06-03 10:22:00,53.0,47.0,-100.00,NW,320,4.0,9.0,79,0.00,,,-99.99,,2013-06-03 14:22:00,
2013-06-03 10:32:00,53.0,47.0,-100.00,NNW,345,2.0,9.0,78,0.00,,,-99.99,,2013-06-03 14:32:00,
2013-06-03 10:42:00,53.0,47.0,-100.00,NW,315,5.0,9.0,79,0.00,,,-99.99,,2013-06-03 14:42:00,
2013-06-03 10:52:00,52.0,47.0,-100.00,NW,310,6.0,11.0,80,0.00,,,-99.99,,2013-06-03 14:52:00,
2013-06-03 11:02:00,53.0,47.0,-100.00,NNW,345,2.0,8.0,79,0.00,,,-99.99,,2013-06-03 15:02:00,
2013-06-03 11:12:00,53.0,47.0,-100.00,NW,305,5.0,8.0,80,0.00,,,-99.99,,2013-06-03 15:12:00,
2013-06-03 11:22:00,52.0,47.0,-100.00,NW,315,7.0,9.0,80,0.00,,,-99.99,,2013-06-03 15:22:00,
2013-06-03 11:33:00,53.0,47.0,-100.00,NW,325,4.0,8.0,79,0.00,,,-99.99,,2013-06-03 15:33:00,
2013-06-03 11:43:00,54.0,47.0,-100.00,NW,315,3.0,6.0,79,0.00,,,-99.99,,2013-06-03 15:43:00,
2013-06-03 11:53:00,53.0,47.0,-100.00,NW,310,6.0,9.0,78,0.00,,,-99.99,,2013-06-03 15:53:00,
2013-06-03 12:03:00,54.0,48.0,-100.00,NW,305,5.0,9.0,80,0.00,,,-99.99,,2013-06-03 16:03:00,
2013-06-03 12:13:00,54.0,48.0,-100.00,NW,305,5.0,9.0,80,0.00,,,-99.99,,2013-06-03 16:13:00,
2013-06-03 12:23:00,54.0,47.0,-100.00,NW,315,6.0,10.0,77,0.00,,,-99.99,,2013-06-03 16:23:00,
2013-06-03 12:33:00,54.0,48.0,-100.00,NW,310,6.0,9.0,80,0.00,,,-99.99,,2013-06-03 16:33:00,
2013-06-03 12:42:00,53.0,47.0,-100.00,NW,325,4.0,9.0,80,0.00,,,-99.99,,2013-06-03 16:42:00,
2013-06-03 12:53:00,54.0,48.0,-100.00,NW,310,6.0,9.0,81,0.00,,,-99.99,,2013-06-03 16:53:00,
2013-06-03 13:02:00,54.0,48.0,-100.00,NW,310,6.0,9.0,81,0.00,,,-99.99,,2013-06-03 17:02:00,
2013-06-03 13:12:00,54.0,48.0,-100.00,NW,310,6.0,9.0,79,0.00,,,-99.99,,2013-06-03 17:12:00,
2013-06-03 13:22:00,55.0,49.0,-100.00,NW,310,6.0,9.0,79,0.00,,,-99.99,,2013-06-03 17:22:00,
2013-06-03 13:33:00,55.0,48.0,-100.00,NW,310,6.0,11.0,76,0.00,,,-99.99,,2013-06-03 17:33:00,
2013-06-03 13:42:00,56.0,49.0,-100.00,WNW,300,6.0,10.0,77,0.00,,,-99.99,,2013-06-03 17:42:00,
2013-06-03 13:52:00,56.0,49.0,-100.00,WNW,290,6.0,9.0,77,0.00,,,-99.99,,2013-06-03 17:52:00,
2013-06-03 14:02:00,56.0,49.0,-100.00,NW,310,3.0,9.0,76,0.00,,,-99.99,,2013-06-03 18:02:00,
2013-06-03 14:12:00,57.0,49.0,-100.00,NW,305,4.0,9.0,74,0.00,,,-99.99,,2013-06-03 18:12:00,
2013-06-03 14:22:00,58.0,49.0,-100.00,NNW,330,2.0,9.0,69,0.00,,,-99.99,,2013-06-03 18:22:00,
2013-06-03 14:32:00,59.0,51.0,-100.00,West,280,3.0,8.0,73,0.00,,,-99.99,,2013-06-03 18:32:00,
2013-06-03 14:42:00,59.0,50.0,-100.00,WNW,300,2.0,9.0,71,0.00,,,-99.99,,2013-06-03 18:42:00,
2013-06-03 14:52:00,59.0,48.0,-100.00,WNW,300,1.0,9.0,68,0.00,,,-99.99,,2013-06-03 18:52:00,
2013-06-03 15:03:00,60.0,49.0,-100.00,WNW,290,3.0,9.0,66,0.00,,,-99.99,,2013-06-03 19:03:00,
2013-06-03 15:12:00,58.0,48.0,-100.00,North,350,1.0,10.0,69,0.00,,,-99.99,,2013-06-03 19:12:00,
2013-06-03 15:22:00,60.0,49.0,-100.00,WNW,295,1.0,7.0,65,0.00,,,-99.99,,2013-06-03 19:22:00,
2013-06-03 15:32:00,60.0,50.0,-100.00,NW,305,7.0,9.0,68,0.00,,,-99.99,,2013-06-03 19:32:00,
2013-06-03 15:42:00,61.0,49.0,-100.00,West,280,6.0,8.0,63,0.00,,,-99.99,,2013-06-03 19:42:00,
2013-06-03 15:52:00,60.0,49.0,-100.00,NW,320,4.0,8.0,66,0.00,,,-99.99,,2013-06-03 19:52:00,
2013-06-03 16:02:00,60.0,48.0,-100.00,WNW,300,3.0,6.0,65,0.00,,,-99.99,,2013-06-03 20:02:00,
2013-06-03 16:12:00,60.0,47.0,-100.00,ENE,65,3.0,7.0,63,0.00,,,-99.99,,2013-06-03 20:12:00,
2013-06-03 16:22:00,60.0,48.0,-100.00,SE,135,1.0,6.0,64,0.00,,,-99.99,,2013-06-03 20:22:00,
2013-06-03 16:33:00,60.0,47.0,-100.00,North,0,3.0,7.0,63,0.00,,,-99.99,,2013-06-03 20:33:00,
2013-06-03 16:42:00,60.0,48.0,-100.00,NW,320,4.0,10.0,64,0.00,,,-99.99,,2013-06-03 20:42:00,
2013-06-03 16:52:00,60.0,47.0,-100.00,NW,320,3.0,6.0,63,0.00,,,-99.99,,2013-06-03 20:52:00,
2013-06-03 17:02:00,63.0,47.0,-100.00,NNE,25,2.0,4.0,56,0.00,,,-99.99,,2013-06-03 21:02:00,
2013-06-03 17:12:00,60.0,47.0,-100.00,NW,310,3.0,6.0,60,0.00,,,-99.99,,2013-06-03 21:12:00,
2013-06-03 17:22:00,63.0,46.0,-100.00,West,260,1.0,7.0,53,0.00,,,-99.99,,2013-06-03 21:22:00,
2013-06-03 17:33:00,63.0,49.0,-100.00,ENE,65,1.0,5.0,59,0.00,,,-99.99,,2013-06-03 21:33:00,
2013-06-03 17:43:00,63.0,49.0,-100.00,ENE,65,1.0,5.0,59,0.00,,,-99.99,,2013-06-03 21:43:00,
2013-06-03 17:53:00,60.0,47.0,-100.00,NW,325,2.0,7.0,61,0.00,,,-99.99,,2013-06-03 21:53:00,
2013-06-03 18:03:00,62.0,48.0,-100.00,NW,310,4.0,7.0,60,0.00,,,-99.99,,2013-06-03 22:03:00,
2013-06-03 18:12:00,62.0,47.0,-100.00,SE,140,1.0,6.0,56,0.00,,,-99.99,,2013-06-03 22:12:00,
2013-06-03 18:22:00,62.0,47.0,-100.00,SE,140,1.0,6.0,56,0.00,,,-99.99,,2013-06-03 22:22:00,
2013-06-03 18:33:00,61.0,47.0,-100.00,NW,320,4.0,8.0,59,0.00,,,-99.99,,2013-06-03 22:33:00,
2013-06-03 18:42:00,61.0,47.0,-100.00,North,10,1.0,6.0,59,0.00,,,-99.99,,2013-06-03 22:42:00,
2013-06-03 18:52:00,62.0,46.0,-100.00,NW,305,1.0,5.0,55,0.00,,,-99.99,,2013-06-03 22:52:00,
2013-06-03 19:02:00,63.0,47.0,-100.00,NW,315,3.0,6.0,56,0.00,,,-99.99,,2013-06-03 23:02:00,
2013-06-03 19:12:00,63.0,48.0,-100.00,NW,310,2.0,7.0,57,0.00,,,-99.99,,2013-06-03 23:12:00,
2013-06-03 19:22:00,63.0,48.0,-100.00,NW,310,2.0,7.0,57,0.00,,,-99.99,,2013-06-03 23:22:00,
2013-06-03 19:32:00,63.0,46.0,-100.00,NE,35,1.0,4.0,54,0.00,,,-99.99,,2013-06-03 23:32:00,
2013-06-03 19:42:00,62.0,46.0,-100.00,North,355,1.0,6.0,56,0.00,,,-99.99,,2013-06-03 23:42:00,
2013-06-03 19:52:00,64.0,48.0,-100.00,NNW,330,0.0,2.0,55,0.00,,,-99.99,,2013-06-03 23:52:00,
2013-06-03 20:02:00,62.0,46.0,-100.00,NNW,345,1.0,4.0,54,0.00,,,-99.99,,2013-06-04 00:02:00,
2013-06-03 20:12:00,62.0,46.0,-100.00,North,355,1.0,4.0,54,0.00,,,-99.99,,2013-06-04 00:12:00,
2013-06-03 20:22:00,62.0,46.0,-100.00,North,355,1.0,4.0,54,0.00,,,-99.99,,2013-06-04 00:22:00,
2013-06-03 20:32:00,61.0,46.0,-100.00,North,0,1.0,4.0,56,0.00,,,-99.99,,2013-06-04 00:32:00,
2013-06-03 20:42:00,61.0,46.0,-100.00,NNE,25,0.0,2.0,56,0.00,,,-99.99,,2013-06-04 00:42:00,
2013-06-03 20:52:00,61.0,46.0,-100.00,NNE,25,0.0,2.0,56,0.00,,,-99.99,,2013-06-04 00:52:00,
2013-06-03 21:02:00,60.0,47.0,-100.00,NW,325,0.0,1.0,63,0.00,,,-99.99,,2013-06-04 01:02:00,
2013-06-03 21:12:00,58.0,45.0,-100.00,NE,35,0.0,0.0,61,0.00,,,-99.99,,2013-06-04 01:12:00,
2013-06-03 21:22:00,57.0,47.0,-100.00,North,10,0.0,0.0,68,0.00,,,-99.99,,2013-06-04 01:22:00,
2013-06-03 21:32:00,57.0,47.0,-100.00,North,10,0.0,0.0,68,0.00,,,-99.99,,2013-06-04 01:32:00,
2013-06-03 21:42:00,55.0,46.0,-100.00,North,10,0.0,0.0,71,0.00,,,-99.99,,2013-06-04 01:42:00,
2013-06-03 21:52:00,54.0,47.0,-100.00,SE,135,0.0,1.0,75,0.00,,,-99.99,,2013-06-04 01:52:00,
2013-06-03 22:02:00,54.0,46.0,-100.00,East,100,0.0,0.0,74,0.00,,,-99.99,,2013-06-04 02:02:00,
2013-06-03 22:12:00,53.0,46.0,-100.00,East,100,0.0,0.0,75,0.00,,,-99.99,,2013-06-04 02:12:00,
2013-06-03 22:22:00,53.0,46.0,-100.00,East,100,0.0,0.0,75,0.00,,,-99.99,,2013-06-04 02:22:00,
2013-06-03 22:32:00,54.0,45.0,-100.00,NNW,330,2.0,4.0,69,0.00,,,-99.99,,2013-06-04 02:32:00,
2013-06-03 22:42:00,54.0,44.0,-100.00,NNE,30,0.0,3.0,68,0.00,,,-99.99,,2013-06-04 02:42:00,
2013-06-03 22:52:00,54.0,44.0,-100.00,NNE,30,0.0,3.0,68,0.00,,,-99.99,,2013-06-04 02:52:00,
2013-06-03 23:02:00,55.0,46.0,-100.00,NNE,15,0.0,3.0,74,0.00,,,-99.99,,2013-06-04 03:02:00,
2013-06-03 23:12:00,55.0,46.0,-100.00,NNE,15,0.0,3.0,74,0.00,,,-99.99,,2013-06-04 03:12:00,
2013-06-03 23:22:00,54.0,47.0,-100.00,NNE,25,1.0,2.0,77,0.00,,,-99.99,,2013-06-04 03:22:00,
2013-06-03 23:32:00,54.0,47.0,-100.00,North,5,1.0,3.0,79,0.00,,,-99.99,,2013-06-04 03:32:00,
2013-06-03 23:43:00,54.0,47.0,-100.00,NNE,15,0.0,2.0,79,0.00,,,-99.99,,2013-06-04 03:43:00,
2013-06-03 23:54:00,54.0,47.0,-100.00,North,0,1.0,3.0,79,0.00,,,-99.99,,2013-06-04 03:54:00,